Tracking 23610 objects as of 19-Sep-2021
HD Live streaming from Space Station
objects crossing your sky now

LEASAT 4

Track LEASAT 4 now!
LEASAT 4 is classified as:


NORAD ID: 15995
Int'l Code: 1985-076D
Perigee: 36,483.4 km
Apogee: 36,518.7 km
Inclination: 12.3 °
Period: 1,472.4 minutes
Semi major axis: 42872 km
RCS: 16.7803 m2 (large)
Launch date: August 27, 1985
Source: United States (US)
Launch site: AIR FORCE EASTERN TEST RANGE (AFETR)
aabbcc
Your satellite tracking list
Your tracking list is empty




NASA's NSSDC Master Catalog

Two Line Element Set (TLE):
1 15995U 85076D   21262.52572149 -.00000192  00000-0  00000-0 0  9996
2 15995  12.3315 339.9757 0004111 330.4301  55.9910  0.97800577101206
Source of the keplerian elements: AFSPC